Temp
11 11 11 11 11 11 12 12 12 12 11 11 11 10 10 10 10 8 9 9 8 9 9 9 7 8 9 10 10 10 16 17 17 16 16 11 12 12 10 9 10 10 10 9 5
10 10 11 11 11 11 12 12 12 12 11 11 11 10 9 9 9 8 9 9 9 9 8 7 9 8 10 10 10 13 15 17 14 14 13 12 11 11 10 10 10 11 10 8 5
10 10 10 11 11 11 11 12 11 11 11 11 11 10 9 9 8 8 9 9 9 8 8 8 8 9 11 10 10 12 15 12 12 11 10 10 9 10 10 10 10 8 6 5 4
10 10 10 10 11 11 11 11 11 11 11 11 10 10 9 8 12 8 9 8 8 8 8 7 8 10 12 12 9 11 11 10 10 8 7 9 8 8 9 9 5 4 3 3 3
10 10 10 10 10 11 11 11 11 11 10 10 10 9 9 8 9 8 9 8 8 8 7 7 9 10 12 11 9 10 11 9 9 8 8 7 7 8 8 7 4 3 2 2 2
9 9 10 10 10 10 11 11 11 11 11 10 9 9 8 10 8 8 8 8 7 7 7 7 8 7 9 9 9 8 8 9 8 8 7 7 7 7 7 4 3 3 3 3 2
9 9 9 9 10 10 11 11 11 11 10 9 9 8 8 9 8 8 7 7 7 7 6 7 6 7 8 9 7 7 8 10 9 8 7 5 6 7 7 3 3 4 3 2 1
9 9 9 9 9 10 10 11 11 10 10 9 8 8 9 8 7 7 7 6 7 6 6 6 6 6 7 6 7 8 8 12 11 8 7 5 7 9 4 3 4 4 2 2 1
8 9 9 9 9 10 10 11 11 10 9 8 8 8 9 7 6 7 7 5 6 6 6 6 5 7 7 10 11 10 11 11 11 7 6 5 6 7 4 3 3 3 2 1 0
8 8 8 9 9 10 10 10 10 9 8 8 7 7 6 7 6 6 6 6 5 5 5 6 7 9 10 12 11 11 10 10 10 10 8 7 7 8 7 6 3 3 2 1 -1
8 8 8 8 9 9 10 10 8 7 8 9 8 8 7 7 6 5 6 5 5 6 9 8 8 10 12 9 8 8 7 8 10 8 6 6 6 7 6 5 3 2 1 -0 -2
7 8 8 8 9 9 9 9 8 7 7 7 7 6 6 6 6 5 5 5 6 9 8 8 9 10 8 7 6 8 8 9 9 7 6 6 6 6 6 5 3 1 -0 -2 -3
7 7 7 7 8 9 9 8 8 6 6 6 5 6 5 6 7 6 5 5 7 8 8 9 10 7 6 8 7 8 8 8 6 6 7 5 7 6 3 3 1 -0 -1 -2 -4
7 7 7 7 8 8 8 8 7 5 8 8 6 5 5 5 6 4 4 5 6 7 8 8 6 6 7 7 5 4 6 5 4 3 6 3 5 7 4 2 1 1 -1 -3 -5
7 7 7 6 6 6 7 7 6 6 9 8 6 5 5 5 4 4 4 4 7 8 5 9 7 6 4 7 5 5 5 4 3 1 2 4 2 7 4 3 3 1 -2 -4 -5
7 7 6 6 6 6 6 6 6 7 9 8 6 6 6 5 5 4 4 3 3 5 6 7 4 4 5 5 4 4 3 4 2 2 3 4 4 8 5 2 2 -0 -3 -5 -7
7 7 6 6 6 6 6 6 6 8 7 7 7 6 6 6 6 5 6 6 7 6 7 6 6 4 2 4 4 4 5 9 8 7 8 3 3 6 1 -1 -2 -4 -7 -8 -7
6 6 6 5 5 5 5 5 7 6 5 6 6 5 6 5 4 5 6 7 4 5 8 9 9 4 2 2 2 3 3 7 6 8 8 5 2 6 -2 -4 -5 -6 -8 -6 -7
5 5 5 5 5 4 5 5 7 7 6 6 7 6 5 4 3 5 7 8 7 5 6 7 7 2 1 1 2 3 5 2 2 1 1 6 6 1 -1 -2 -3 -5 -6 -6 -7
4 4 4 4 4 3 3 6 5 1 1 2 4 4 5 4 4 5 8 6 5 3 3 3 6 4 1 0 1 2 2 3 2 5 6 9 7 6 -0 -2 -3 -6 -6 -7 -8
4 4 3 3 2 2 4 4 1 -2 -1 2 3 4 3 3 5 6 8 5 5 2 3 2 2 4 1 0 3 1 2 2 2 2 4 5 8 -0 -3 -5 -6 -7 -7 -8 -9
4 3 2 2 1 -0 3 1 -1 -1 -2 -0 1 4 3 2 4 4 6 6 4 3 4 3 2 5 5 -2 -1 1 2 3 4 3 2 1 3 -3 -5 -6 -7 -7 -8 -9 -10
3 1 1 1 3 2 1 1 -1 -0 -0 0 2 2 0 1 3 3 4 2 2 3 3 1 5 7 5 0 -0 -1 -0 0 -1 -0 3 3 7 -5 -6 -6 -7 -9 -9 -10 -10
3 2 0 -0 -0 1 2 2 2 -1 -1 -1 2 1 -0 1 0 1 3 2 1 2 -0 1 2 4 9 5 1 0 -1 -1 1 2 4 2 4 2 -1 -4 -6 -9 -10 -11 -12
3 2 2 2 1 1 0 1 2 2 -1 -1 1 1 1 2 0 -0 0 2 1 1 1 1 2 -1 1 0 -4 -1 -0 -1 -1 1 2 2 -3 0 -1 -5 -8 -11 -11 -11 -12
2 1 1 0 0 1 1 2 2 2 1 2 0 1 0 1 1 2 2 3 3 1 1 -0 2 -2 -1 -5 -6 -4 -2 -3 -2 -1 -2 -3 -2 -1 -7 -9 -10 -9 -11 -11 -12
2 2 3 1 1 1 3 2 2 1 2 2 1 0 -0 1 -2 -1 0 0 1 1 1 -0 1 1 5 -2 -1 2 -2 -3 -2 -2 -1 -0 2 -4 -5 -6 -6 -8 -10 -11 -11
Height
1520 1519 1517 1515 1513 1511 1509 1507 1504 1502 1499 1498 1497 1497 1498 1498 1497 1496 1494 1493 1488 1485 1483 1483 1485 1486 1486 1487 1487 1487 1478 1467 1467 1474 1473 1485 1486 1485 1486 1485 1485 1484 1483 1483 1480
1520 1519 1517 1514 1513 1511 1509 1507 1505 1502 1500 1498 1497 1496 1497 1497 1498 1497 1494 1490 1487 1485 1485 1485 1486 1487 1488 1488 1488 1484 1474 1467 1479 1480 1481 1483 1485 1485 1485 1482 1480 1479 1480 1480 1480
1520 1519 1517 1514 1513 1511 1508 1506 1504 1502 1500 1499 1497 1497 1497 1497 1498 1497 1493 1490 1488 1486 1485 1485 1485 1487 1487 1487 1488 1484 1474 1481 1481 1485 1486 1485 1484 1483 1481 1478 1478 1477 1479 1479 1478
1520 1519 1516 1514 1512 1510 1507 1505 1503 1501 1500 1498 1497 1496 1497 1497 1497 1494 1492 1489 1488 1486 1486 1486 1486 1487 1484 1484 1488 1485 1482 1484 1484 1486 1486 1484 1483 1479 1479 1476 1478 1480 1479 1478 1477
1520 1519 1516 1514 1511 1509 1506 1504 1501 1500 1498 1497 1496 1496 1497 1499 1497 1493 1490 1489 1488 1488 1488 1488 1487 1486 1484 1486 1488 1485 1482 1484 1483 1484 1483 1483 1480 1479 1474 1475 1476 1478 1478 1476 1473
1520 1518 1516 1514 1511 1508 1505 1502 1500 1497 1496 1496 1496 1495 1497 1499 1493 1492 1490 1489 1489 1489 1489 1489 1488 1487 1487 1487 1487 1486 1484 1482 1482 1482 1480 1480 1476 1476 1471 1472 1474 1474 1474 1473 1471
1520 1517 1515 1512 1510 1506 1503 1501 1498 1496 1495 1494 1495 1495 1496 1496 1492 1491 1489 1489 1489 1488 1490 1488 1489 1489 1488 1486 1487 1485 1482 1476 1478 1479 1479 1480 1470 1465 1465 1471 1472 1472 1471 1470 1469
1519 1517 1514 1511 1508 1505 1502 1499 1496 1495 1493 1493 1494 1494 1493 1491 1490 1490 1489 1489 1489 1489 1489 1488 1489 1490 1488 1488 1486 1482 1480 1464 1467 1474 1477 1482 1461 1459 1467 1470 1469 1469 1469 1468 1466
1518 1515 1513 1510 1507 1504 1501 1498 1495 1493 1493 1493 1494 1495 1492 1489 1490 1488 1488 1490 1488 1489 1489 1488 1489 1489 1488 1481 1474 1476 1465 1462 1464 1471 1475 1478 1463 1462 1466 1468 1467 1467 1467 1466 1464
1516 1515 1512 1509 1506 1503 1500 1497 1494 1492 1492 1493 1493 1497 1491 1489 1487 1487 1487 1488 1489 1489 1490 1489 1488 1483 1479 1472 1471 1467 1466 1463 1463 1463 1463 1464 1453 1454 1457 1458 1463 1463 1464 1463 1461
1515 1513 1511 1508 1505 1502 1500 1497 1498 1495 1491 1490 1489 1489 1487 1487 1487 1486 1486 1488 1489 1489 1485 1486 1483 1474 1466 1477 1478 1477 1476 1468 1456 1462 1465 1456 1451 1450 1453 1454 1460 1461 1462 1461 1459
1514 1512 1510 1508 1504 1502 1500 1498 1499 1498 1491 1484 1484 1485 1486 1486 1487 1486 1487 1489 1488 1482 1485 1485 1475 1473 1479 1481 1481 1475 1469 1458 1455 1462 1464 1452 1443 1443 1446 1450 1455 1459 1460 1458 1454
1512 1510 1509 1506 1504 1501 1500 1499 1497 1495 1493 1484 1482 1484 1485 1487 1485 1486 1486 1486 1484 1480 1480 1476 1472 1479 1480 1476 1476 1470 1465 1459 1464 1461 1452 1454 1432 1436 1449 1451 1456 1458 1457 1456 1454
1508 1508 1508 1505 1505 1501 1499 1498 1496 1494 1489 1483 1483 1483 1484 1485 1485 1484 1483 1487 1484 1479 1478 1475 1477 1478 1477 1474 1479 1478 1468 1470 1468 1469 1448 1464 1440 1430 1442 1450 1454 1456 1457 1455 1452
1505 1504 1505 1503 1503 1502 1502 1497 1496 1495 1487 1485 1484 1483 1484 1487 1486 1484 1483 1484 1480 1477 1484 1468 1474 1475 1480 1473 1479 1471 1471 1468 1469 1472 1471 1457 1464 1422 1444 1445 1446 1453 1456 1454 1451
1503 1502 1502 1502 1501 1501 1499 1497 1497 1497 1479 1480 1483 1483 1484 1484 1484 1483 1483 1484 1483 1480 1479 1473 1479 1478 1476 1478 1478 1476 1469 1465 1471 1468 1460 1448 1451 1419 1430 1446 1449 1452 1455 1451 1448
1501 1499 1499 1501 1500 1500 1498 1498 1498 1486 1481 1481 1480 1482 1482 1481 1481 1480 1479 1479 1474 1474 1467 1471 1471 1477 1480 1477 1476 1475 1465 1437 1435 1437 1424 1456 1454 1426 1447 1453 1456 1455 1453 1449 1445
1497 1497 1496 1497 1499 1499 1498 1499 1489 1483 1482 1481 1481 1482 1480 1480 1481 1478 1476 1470 1476 1477 1465 1458 1455 1474 1481 1481 1481 1478 1476 1455 1452 1428 1426 1444 1449 1425 1453 1455 1455 1453 1450 1445 1442
1495 1494 1494 1495 1496 1497 1498 1500 1484 1481 1483 1480 1479 1479 1478 1481 1485 1477 1470 1463 1466 1474 1470 1463 1459 1478 1481 1483 1483 1478 1469 1481 1478 1481 1476 1432 1428 1445 1450 1451 1451 1448 1446 1442 1439
1493 1493 1494 1492 1493 1497 1498 1488 1486 1489 1488 1487 1483 1483 1478 1478 1481 1477 1463 1467 1470 1475 1477 1476 1464 1472 1481 1484 1484 1482 1482 1473 1480 1456 1440 1408 1415 1418 1443 1449 1446 1446 1443 1440 1436
1492 1495 1493 1492 1493 1497 1493 1490 1490 1490 1491 1488 1482 1482 1482 1482 1477 1472 1463 1470 1471 1476 1477 1478 1479 1471 1480 1480 1470 1481 1475 1477 1476 1475 1456 1439 1407 1440 1447 1449 1446 1444 1441 1438 1436
1491 1496 1493 1493 1496 1496 1493 1492 1493 1490 1490 1490 1490 1483 1482 1484 1478 1475 1468 1467 1473 1475 1473 1477 1476 1462 1459 1480 1481 1479 1474 1469 1457 1467 1471 1474 1438 1444 1447 1447 1445 1442 1439 1437 1437
1490 1494 1492 1493 1492 1493 1494 1493 1492 1490 1489 1489 1485 1484 1486 1485 1479 1475 1471 1476 1476 1476 1476 1479 1466 1452 1453 1477 1480 1479 1478 1476 1478 1479 1460 1456 1412 1446 1446 1442 1441 1440 1438 1437 1436
1491 1492 1493 1494 1494 1494 1492 1489 1489 1490 1490 1489 1485 1486 1487 1483 1484 1480 1475 1477 1478 1477 1479 1480 1473 1464 1438 1452 1470 1472 1474 1478 1472 1462 1447 1449 1426 1431 1436 1437 1438 1439 1438 1437 1437
1489 1489 1489 1491 1492 1493 1494 1490 1486 1486 1489 1487 1483 1484 1483 1477 1481 1482 1480 1477 1479 1479 1481 1481 1472 1476 1466 1466 1477 1469 1466 1471 1471 1460 1451 1436 1455 1431 1434 1437 1438 1437 1437 1437 1437
1486 1488 1489 1490 1491 1491 1491 1488 1485 1484 1485 1482 1484 1480 1482 1479 1478 1474 1477 1475 1472 1479 1480 1482 1470 1480 1468 1475 1481 1472 1464 1468 1467 1464 1461 1457 1449 1434 1437 1437 1436 1436 1435 1434 1433
1485 1486 1486 1488 1490 1490 1485 1485 1483 1485 1480 1481 1481 1481 1480 1478 1480 1480 1478 1478 1477 1477 1478 1480 1474 1471 1444 1467 1464 1448 1446 1455 1452 1452 1447 1443 1427 1435 1436 1435 1434 1434 1434 1434 1433
Wind_Speed
9 10 11 12 12 13 14 14 12 10 7 6 3 1 2 1 5 7 7 12 13 8 3 3 2 3 3 1 1 2 5 6 5 4 2 2 4 6 8 14 17 16 17 16 15
9 10 11 11 12 12 13 12 12 11 8 5 2 2 3 3 5 6 14 11 8 5 3 1 3 3 1 2 1 4 4 4 4 4 6 9 11 14 11 17 21 23 19 13 18
10 10 11 12 12 13 13 13 11 10 8 6 3 3 3 3 5 3 13 8 6 4 1 3 5 3 3 2 1 1 3 4 1 4 6 10 15 18 19 18 20 13 14 18 21
9 10 11 11 13 14 14 13 12 10 8 6 4 3 2 1 3 6 11 6 5 3 2 3 3 3 4 3 1 4 4 4 2 3 6 12 17 16 19 21 8 9 12 16 21
9 11 12 13 13 14 15 14 12 12 8 7 5 4 1 4 5 8 10 4 3 3 1 2 1 2 3 1 2 6 3 4 8 9 15 14 17 17 20 18 9 10 12 14 18
10 11 13 14 15 15 16 14 13 12 8 6 5 5 3 6 7 8 7 0 1 3 4 2 1 1 1 2 4 3 10 11 6 7 10 10 17 17 14 2 7 10 12 15 17
12 12 13 15 16 17 17 16 14 10 6 6 5 5 5 6 7 8 2 2 2 2 1 2 2 1 0 2 2 5 7 7 5 1 5 10 17 12 6 3 8 12 14 15 15
12 14 15 16 17 17 17 16 14 9 6 5 5 5 4 7 7 6 2 2 2 3 3 2 1 1 2 1 2 4 3 8 5 2 1 4 12 9 3 6 13 15 14 15 16
13 14 15 17 17 16 16 16 14 8 5 5 5 4 4 7 5 4 4 3 4 4 5 3 2 3 4 5 6 6 8 12 8 6 3 5 15 3 5 12 16 14 13 15 17
12 14 15 16 18 15 15 15 10 6 4 6 7 4 6 3 7 4 3 5 3 2 3 3 4 6 6 6 5 9 8 7 14 3 11 18 25 21 22 12 15 14 13 15 18
12 13 14 16 18 13 14 9 6 3 5 6 1 3 3 7 7 4 3 2 3 4 4 3 5 9 3 2 5 8 10 16 17 7 10 12 21 20 18 17 14 13 12 16 20
14 13 13 15 17 13 12 6 6 7 10 12 12 8 6 6 4 5 2 4 5 7 2 4 8 4 2 3 8 11 15 17 6 5 16 16 21 15 14 13 13 8 11 16 19
16 15 13 14 15 13 12 12 10 8 6 2 5 3 3 5 3 4 3 3 6 7 9 10 3 3 3 7 10 12 12 12 13 19 11 11 12 5 1 5 7 9 9 15 17
16 15 14 13 9 15 9 14 12 11 4 3 2 1 1 2 3 4 3 2 4 4 3 9 4 4 7 9 2 6 3 9 15 11 5 5 6 6 6 7 8 8 12 17 16
15 15 14 11 11 10 11 11 11 6 5 3 2 2 2 3 1 2 3 1 6 3 2 1 3 5 3 4 2 7 13 14 9 3 9 6 3 3 4 8 8 4 14 17 16
13 13 12 12 10 9 9 9 7 1 7 2 2 1 2 3 2 0 2 2 2 3 7 6 0 2 2 5 6 11 10 4 1 2 3 6 2 6 3 1 1 7 15 17 16
14 12 12 13 8 10 8 4 2 4 1 1 1 1 2 2 3 2 3 6 4 3 5 3 4 3 1 5 3 7 8 4 3 2 3 6 6 7 4 2 3 9 15 16 15
14 13 11 12 13 10 4 0 6 2 3 1 1 2 4 3 3 2 4 5 7 4 4 3 4 4 1 2 1 3 4 2 7 6 11 8 6 0 3 2 6 7 13 14 15
12 10 11 13 12 9 4 3 4 1 3 3 2 2 3 2 4 3 7 4 1 8 4 3 2 4 4 2 0 2 2 2 3 2 4 4 5 5 3 4 10 10 13 12 14
5 6 11 10 7 5 1 4 4 3 3 2 7 4 4 2 1 3 4 2 4 2 1 2 4 3 4 2 1 3 6 2 3 5 7 5 6 7 2 9 13 10 13 14 14
1 3 5 3 4 3 3 3 2 1 2 2 1 3 4 2 5 3 3 3 2 4 1 4 1 3 3 5 4 3 3 2 1 2 4 7 5 3 2 7 12 11 13 14 14
2 2 2 4 1 1 2 2 2 1 2 2 5 5 4 1 4 2 5 3 3 7 2 3 2 5 1 4 0 1 3 4 3 4 4 3 8 6 3 5 10 13 13 12 12
2 1 3 3 1 1 1 2 2 3 2 2 3 4 2 2 4 4 3 2 3 2 1 3 3 4 3 2 2 4 5 3 3 1 7 3 5 5 5 8 8 11 11 10 10
2 1 2 2 2 2 2 2 3 5 3 4 3 2 1 4 5 4 3 0 2 1 1 3 3 5 5 2 1 4 8 10 5 4 3 9 15 6 4 7 7 7 7 8 7
5 2 3 1 3 3 0 2 2 2 5 5 3 9 5 3 1 4 4 2 3 4 1 2 4 2 8 7 2 7 5 13 14 5 6 1 5 15 11 6 6 7 5 5 4
4 2 2 3 2 4 4 2 2 2 4 3 5 2 8 5 2 2 2 3 2 6 2 1 2 3 5 2 3 6 10 11 14 11 14 14 17 1 1 4 5 5 4 3 2
5 3 1 3 2 2 3 3 2 0 5 5 4 3 6 8 5 9 9 6 4 3 7 3 3 2 4 1 6 7 7 13 7 8 6 6 1 3 2 5 5 5 5 4 3
Wind_Direction
358 353 353 355 356 358 356 353 354 355 359 355 1 137 198 288 345 9 346 330 333 340 27 64 77 131 110 131 157 244 240 260 266 273 52 140 295 300 278 274 280 275 273 295 323
354 350 350 354 354 356 354 355 353 348 342 342 323 242 226 293 339 346 342 346 349 7 67 111 149 153 159 174 210 247 262 358 29 337 289 300 286 298 289 282 281 281 276 288 316
349 350 352 352 351 352 350 350 351 347 334 323 305 257 251 309 311 299 341 354 360 1 71 153 152 161 188 200 189 216 292 40 309 286 293 292 289 283 276 274 281 296 288 301 311
344 346 351 353 350 348 347 346 342 341 324 310 282 246 261 308 308 309 342 356 1 9 45 117 165 210 199 217 220 267 255 269 321 285 285 287 292 279 271 275 301 297 297 305 309
343 344 345 345 346 345 343 340 336 329 312 294 258 228 207 263 257 312 340 346 18 26 172 98 195 202 226 233 240 250 300 285 293 279 285 289 277 273 278 274 257 282 291 295 301
344 344 344 342 340 340 339 334 331 322 300 275 245 221 214 260 251 311 332 242 81 58 60 35 6 181 160 251 241 329 295 294 295 283 283 284 284 281 267 198 254 265 283 294 299
339 341 340 338 334 331 333 332 330 321 290 254 234 219 245 255 241 311 301 202 217 170 22 73 50 332 195 216 268 297 296 261 206 281 306 325 279 231 239 211 260 275 293 300 306
334 335 335 335 334 331 327 328 326 316 283 244 232 213 262 231 242 310 219 235 248 225 210 254 27 285 272 290 226 258 255 330 153 210 84 343 283 322 143 263 277 290 296 303 310
332 335 336 335 335 334 331 326 320 308 271 241 222 210 254 223 232 284 211 246 245 275 255 273 312 266 233 258 236 215 307 310 325 166 237 230 288 296 265 265 281 284 294 304 313
327 332 337 340 339 336 337 330 322 302 265 245 230 244 232 216 212 244 250 239 241 253 270 236 242 255 230 263 278 297 306 296 304 276 278 290 276 276 278 272 266 279 289 309 318
318 325 335 341 344 345 346 343 344 295 244 233 226 277 177 212 216 247 291 200 228 230 248 185 253 235 286 245 298 288 280 286 297 8 311 276 284 282 281 267 251 261 290 310 317
312 315 323 336 345 352 353 2 329 296 299 259 245 237 225 202 220 240 269 199 216 244 194 227 245 62 99 251 265 275 283 295 317 189 323 296 288 286 276 252 247 268 297 315 317
305 312 313 326 337 342 345 353 342 329 265 236 209 196 209 216 256 196 178 224 247 245 227 253 359 140 242 267 277 279 277 303 298 319 278 306 272 200 250 194 208 240 315 319 314
295 304 307 320 328 332 328 339 339 334 279 163 167 245 199 209 237 213 189 233 231 275 270 261 91 235 259 276 264 290 37 306 307 327 307 19 296 231 172 212 214 244 328 322 315
300 292 297 304 307 320 318 332 335 347 302 92 132 169 199 237 6 204 217 210 256 262 206 32 227 241 272 266 168 260 325 301 314 271 320 150 254 222 171 238 227 268 326 324 316
311 296 287 294 288 295 317 333 333 283 245 134 134 161 221 210 231 251 214 231 279 269 226 262 344 244 264 289 251 297 301 301 166 311 263 162 245 275 166 355 264 313 325 321 315
298 308 285 284 283 296 305 339 326 228 315 105 208 205 255 229 244 240 218 208 229 240 218 177 208 139 315 289 198 328 297 313 278 234 306 166 254 292 106 108 308 313 315 314 312
283 295 280 276 282 288 302 250 239 236 244 106 232 226 242 134 231 236 250 245 211 211 285 264 237 181 53 57 327 12 304 32 299 313 308 196 245 357 106 164 290 288 307 304 311
278 284 270 274 275 251 157 272 248 304 326 351 263 255 251 177 232 248 225 250 106 192 214 260 229 119 82 80 238 86 241 50 273 117 275 235 243 134 166 229 328 322 312 307 309
282 260 261 271 246 189 136 224 263 13 344 59 201 210 256 129 235 242 217 131 160 158 163 65 282 168 123 131 116 280 140 214 148 310 302 304 296 275 226 327 317 321 311 308 308
147 266 279 257 160 191 224 255 308 335 332 284 275 261 241 277 249 250 293 150 173 145 173 161 246 132 155 193 159 156 217 195 294 232 298 311 312 95 179 318 305 307 307 304 312
152 259 251 148 118 350 266 325 284 289 226 278 261 256 216 253 273 254 263 347 147 157 187 155 298 261 229 107 21 294 277 228 237 158 231 281 275 125 184 298 292 300 302 307 318
160 209 220 174 229 210 223 269 263 218 215 232 264 239 62 233 255 226 288 20 166 191 204 166 194 293 186 140 154 228 193 223 97 47 229 256 288 160 241 282 298 290 303 318 325
174 191 75 196 198 257 276 217 244 214 248 238 285 216 194 234 199 293 297 68 213 250 120 168 271 254 268 5 16 214 196 199 214 220 180 237 288 273 343 306 316 302 314 326 333
188 225 180 191 236 216 248 300 294 293 227 220 245 228 207 263 211 234 249 253 196 170 128 286 271 294 273 276 228 258 221 196 207 245 233 10 264 297 316 302 316 308 324 330 344
175 173 149 170 199 188 188 225 279 273 225 213 238 345 225 252 253 18 343 235 264 177 228 148 287 332 275 102 211 271 233 210 225 250 260 276 285 310 22 291 282 283 269 245 230
207 212 249 179 178 223 207 221 265 282 226 254 256 282 242 257 299 296 266 291 285 192 199 204 275 297 275 251 298 267 217 182 187 205 200 206 206 163 241 248 267 247 240 240 207